EW8485 Weather Reports


Display with metric or nautical units.
time (UTC)temp
F
wind
direction
speed
MPH
gust
MPH
rain 1hr
in
rain 24hr
in
rain mn
in
humidity
%
barometer
mb
20260902131718 79 234 0.0 1.0 0.00 0.00 0.00 97 1011.1
20260902131218 79 234 0.0 1.0 0.00 0.00 0.00 97 1011.0
20260902130718 79 234 0.0 1.0 0.00 0.00 0.00 97 1011.0
20260902130216 79 233 0.0 1.0 0.00 0.00 0.00 97 1010.9
20260902125712 78 233 0.0 0.0 0.00 0.00 0.00 97 1010.8
20260902125209 78 233 0.0 0.0 0.00 0.00 0.00 97 1010.8
20260902124707 78 233 0.0 2.0 0.00 0.00 0.00 97 1010.7
20260902124437 78 233 0.0 2.0 0.00 0.00 0.00 97 1010.6
20260902123705 78 246 0.0 0.0 0.00 0.00 0.00 97 1010.5
20260902123158 78 246 0.0 0.0 0.00 0.00 0.00 97 1010.3
20260902122711 78 246 0.0 0.0 0.00 0.00 0.00 97 1010.2
20260902122155 78 246 0.0 0.0 0.00 0.00 0.00 96 1010.1
20260902121653 78 246 0.0 0.0 0.00 0.00 0.00 96 1010.1
20260902121153 78 246 0.0 1.0 0.00 0.00 0.00 96 1010.1
20260902120647 78 246 0.0 1.0 0.00 0.00 0.00 97 1010.2
20260902120145 78 246 0.0 1.0 0.00 0.00 0.00 97 1010.2
20260902115644 78 245 0.0 1.0 0.00 0.00 0.00 97 1010.2
20260902115141 78 245 0.0 2.0 0.00 0.00 0.00 97 1010.1
20260902114641 78 245 0.0 2.0 0.00 0.00 0.00 97 1010.0
20260902114411 78 236 0.0 1.0 0.00 0.00 0.00 96 1010.0
20260902113639 78 236 0.0 1.0 0.00 0.00 0.00 96 1010.1
20260902113140 78 236 0.0 0.0 0.00 0.00 0.00 96 1010.0
20260902112637 78 236 0.0 0.0 0.00 0.00 0.00 96 1010.0
20260902112135 78 236 0.0 0.0 0.00 0.00 0.00 96 1009.9
20260902111635 78 236 0.0 0.0 0.00 0.00 0.00 96 1010.0
20260902111132 78 236 0.0 0.0 0.00 0.00 0.00 96 1010.0
20260902110902 78 236 0.0 0.0 0.00 0.00 0.00 96 1010.0
20260902110132 78 236 0.0 0.0 0.00 0.00 0.00 96 1010.0
20260902105902 78 236 0.0 1.0 0.00 0.00 0.00 96 1010.0
20260902105133 78 236 0.0 1.0 0.00 0.00 0.00 96 1010.0
20260902105128 78 236 0.0 1.0 0.00 0.00 0.00 96 1009.9
20260902104123 78 236 0.0 1.0 0.00 0.00 0.00 96 1009.9
20260902103853 78 236 0.0 0.0 0.00 0.00 0.00 95 1009.9
20260902103119 78 237 0.0 0.0 0.00 0.00 0.00 95 1009.8
20260902102617 78 237 0.0 0.0 0.00 0.00 0.00 95 1009.8
20260902102116 78 237 0.0 0.0 0.00 0.00 0.00 95 1009.7
20260902101614 78 237 0.0 1.0 0.00 0.00 0.00 95 1009.8
20260902101609 78 237 0.0 1.0 0.00 0.00 0.00 95 1009.8
20260902100607 78 234 0.0 1.0 0.00 0.00 0.00 95 1009.8
20260902100105 78 234 0.0 0.0 0.00 0.00 0.00 95 1009.7
20260902095605 78 234 0.0 0.0 0.00 0.00 0.00 95 1009.8
20260902095101 78 234 0.0 0.0 0.00 0.00 0.00 95 1009.8
20260902094600 78 234 0.0 0.0 0.00 0.00 0.00 95 1009.8
20260902094058 79 234 0.0 1.0 0.00 0.00 0.00 94 1009.7
20260902093559 79 234 0.0 1.0 0.00 0.00 0.00 94 1009.7
20260902093059 79 234 0.0 1.0 0.00 0.00 0.00 94 1009.8
20260902092559 79 234 0.0 1.0 0.00 0.00 0.00 94 1009.9
20260902092053 79 234 0.0 1.0 0.00 0.00 0.00 94 1009.8
20260902091551 79 234 0.0 1.0 0.00 0.00 0.00 94 1009.7
20260902091319 79 234 0.0 1.0 0.00 0.00 0.00 94 1009.7
20260902090547 79 234 0.0 1.0 0.00 0.00 0.00 94 1009.7
20260902090047 79 234 0.0 1.0 0.00 0.00 0.00 94 1009.7
20260902085540 79 233 0.0 1.0 0.00 0.00 0.00 94 1009.6
20260902085039 79 246 0.0 1.0 0.00 0.00 0.00 93 1009.6
20260902084537 79 247 0.0 1.0 0.00 0.00 0.00 93 1009.6
20260902084035 79 247 0.0 1.0 0.00 0.00 0.00 93 1009.7
20260902083535 79 247 0.0 2.0 0.00 0.00 0.00 93 1009.8
20260902083033 79 247 0.0 2.0 0.00 0.00 0.00 93 1009.8
20260902082531 80 255 0.0 2.0 0.00 0.00 0.00 93 1009.8
20260902082029 80 233 0.0 2.0 0.00 0.00 0.00 93 1009.8
20260902081529 80 156 0.0 3.0 0.00 0.00 0.00 93 1009.8
20260902081259 80 236 0.0 3.0 0.00 0.00 0.00 92 1009.8
20260902080528 80 240 0.0 4.0 0.00 0.00 0.00 92 1009.8
20260902080022 80 214 1.0 4.0 0.00 0.00 0.00 92 1009.8
20260902075753 80 243 0.0 2.0 0.00 0.00 0.00 92 1009.8
20260902075021 80 213 1.0 3.0 0.00 0.00 0.00 92 1009.8
20260902074523 80 254 0.0 3.0 0.00 0.00 0.00 92 1009.8
20260902074023 80 220 0.0 2.0 0.00 0.00 0.00 92 1009.9
20260902073523 80 233 0.0 2.0 0.00 0.00 0.00 92 1009.9
20260902073015 80 233 0.0 2.0 0.00 0.00 0.00 92 1009.9
20260902072515 80 263 1.0 4.0 0.00 0.00 0.00 92 1010.0
20260902072013 80 255 1.0 4.0 0.00 0.00 0.00 92 1010.0
20260902071510 80 233 1.0 4.0 0.00 0.00 0.00 92 1009.9
20260902071010 80 230 1.0 4.0 0.00 0.00 0.00 92 1009.8
20260902070507 80 256 1.0 4.0 0.00 0.00 0.00 92 1009.8
20260902070006 80 245 0.0 3.0 0.00 0.00 0.00 92 1009.9
20260902065733 80 262 0.0 3.0 0.00 0.00 0.00 92 1009.8
20260902065006 80 201 0.0 3.0 0.00 0.00 0.00 92 1009.8
20260902064501 80 229 0.0 2.0 0.00 0.00 0.00 92 1009.8
20260902064231 80 246 0.0 2.0 0.00 0.00 0.00 91 1009.8
20260902063459 80 250 0.0 2.0 0.00 0.00 0.00 91 1009.9
20260902062956 81 176 0.0 2.0 0.00 0.00 0.00 91 1009.9
20260902062727 81 233 0.0 4.0 0.00 0.00 0.00 91 1009.9
20260902062229 81 206 1.0 4.0 0.00 0.00 0.00 91 1009.9
20260902061725 81 260 1.0 4.0 0.00 0.00 0.00 90 1009.9
20260902060955 81 258 0.0 3.0 0.00 0.00 0.00 90 1009.9
20260902060721 81 225 1.0 3.0 0.00 0.00 0.00 90 1009.9
20260902055954 81 238 0.0 3.0 0.00 0.00 0.00 90 1009.9
20260902055947 81 224 1.0 3.0 0.00 0.00 0.00 90 1009.8
20260902055215 81 260 0.0 3.0 0.00 0.00 0.00 89 1009.9
20260902054445 81 224 0.0 3.0 0.00 0.00 0.00 89 1010.0
20260902054214 81 244 0.0 3.0 0.00 0.00 0.00 89 1010.0
20260902053444 81 226 0.0 3.0 0.00 0.00 0.00 89 1010.0
20260902052945 82 229 0.0 3.0 0.00 0.00 0.00 89 1010.0
20260902052440 82 230 0.0 2.0 0.00 0.00 0.00 89 1009.8
20260902051941 82 214 0.0 2.0 0.00 0.00 0.00 88 1010.0
20260902051440 82 240 0.0 2.0 0.00 0.00 0.00 88 1010.0
20260902051217 82 240 0.0 1.0 0.00 0.00 0.00 88 1010.0
20260902050939 82 238 0.0 1.0 0.00 0.00 0.00 88 1010.0
20260902045938 82 240 0.0 1.0 0.00 0.00 0.00 87 1010.0
20260902045436 82 239 0.0 1.0 0.00 0.00 0.00 87 1009.9
20260902045203 82 242 0.0 1.0 0.00 0.00 0.00 87 1009.9
20260902044434 82 229 0.0 1.0 0.00 0.00 0.00 86 1009.9
20260902043934 82 222 0.0 1.0 0.00 0.00 0.00 86 1009.9
20260902043705 82 232 0.0 3.0 0.00 0.00 0.00 86 1010.0
20260902042932 81 204 0.0 3.0 0.00 0.00 0.00 86 1009.9
20260902042430 81 238 0.0 0.0 0.00 0.00 0.00 86 1009.9
20260902041937 81 238 0.0 0.0 0.00 0.00 0.00 85 1010.0
20260902041930 81 238 0.0 0.0 0.00 0.00 0.00 86 1009.9
20260902040928 81 238 0.0 0.0 0.00 0.00 0.00 85 1010.1
20260902040658 82 238 0.0 0.0 0.00 0.00 0.00 85 1010.1
20260902035925 82 238 0.0 0.0 0.00 0.00 0.00 84 1010.1
20260902035424 82 238 0.0 0.0 0.00 0.00 0.00 85 1010.1
20260902034924 82 238 0.0 0.0 0.00 0.00 0.00 84 1010.2
20260902034424 82 238 0.0 0.0 0.00 0.00 0.00 84 1010.2
20260902033922 82 238 0.0 0.0 0.00 0.00 0.00 84 1010.1
20260902033422 82 238 0.0 0.0 0.00 0.00 0.00 83 1010.1
20260902032916 82 238 0.0 0.0 0.00 0.00 0.00 83 1010.1
20260902032646 82 238 0.0 0.0 0.00 0.00 0.00 83 1009.9
20260902031913 82 238 0.0 0.0 0.00 0.00 0.00 83 1009.9
20260902031410 82 238 0.0 0.0 0.00 0.00 0.00 82 1009.9
20260902030910 82 238 0.0 0.0 0.00 0.00 0.00 82 1009.8
20260902030404 82 238 0.0 0.0 0.00 0.00 0.00 81 1009.7
20260902025902 82 238 0.0 0.0 0.00 0.00 0.00 81 1009.6
20260902025400 82 238 0.0 1.0 0.00 0.00 0.00 81 1009.6
20260902024858 83 238 0.0 1.0 0.00 0.00 0.00 80 1009.5
20260902024628 83 238 0.0 1.0 0.00 0.00 0.00 80 1009.5
20260902023852 83 238 0.0 1.0 0.00 0.00 0.00 80 1009.4
20260902023350 83 121 0.0 1.0 0.00 0.00 0.00 80 1009.4
20260902022848 83 121 0.0 0.0 0.00 0.00 0.00 80 1009.4
20260902022347 83 121 0.0 0.0 0.00 0.00 0.00 80 1009.4
20260902022116 83 121 0.0 0.0 0.00 0.00 0.00 80 1009.3
20260902021343 83 121 0.0 0.0 0.00 0.00 0.00 80 1009.1
20260902020841 83 121 0.0 0.0 0.00 0.00 0.00 80 1009.1
20260902020342 83 121 0.0 0.0 0.00 0.00 0.00 80 1008.9
20260902020113 83 121 0.0 0.0 0.00 0.00 0.00 79 1008.9
20260902015340 83 121 0.0 0.0 0.00 0.00 0.00 80 1008.8
20260902014840 83 121 0.0 0.0 0.00 0.00 0.00 80 1008.8
20260902014338 83 121 0.0 0.0 0.00 0.00 0.00 78 1008.7
20260902013836 83 121 0.0 0.0 0.00 0.00 0.00 78 1008.8
20260902013335 83 121 0.0 0.0 0.00 0.00 0.00 78 1008.6
20260902013107 84 121 0.0 0.0 0.00 0.00 0.00 78 1008.5
20260902012334 84 121 0.0 0.0 0.00 0.00 0.00 78 1008.4
20260902011833 84 121 0.0 0.0 0.00 0.00 0.00 77 1008.4
20260902011600 84 121 0.0 0.0 0.00 0.00 0.00 77 1008.5
20260902010826 85 121 0.0 0.0 0.00 0.00 0.00 76 1008.5
20260902010329 85 121 0.0 1.0 0.00 0.00 0.00 76 1008.5
20260902005828 85 121 0.0 1.0 0.00 0.00 0.00 75 1008.6
20260902005326 85 121 0.0 1.0 0.00 0.00 0.00 74 1008.7
20260902004826 85 91 0.0 1.0 0.00 0.00 0.00 75 1008.8
20260902004320 86 91 0.0 2.0 0.00 0.00 0.00 75 1008.8
20260902004051 86 88 1.0 4.0 0.00 0.00 0.00 74 1008.8
20260902003319 86 74 2.0 6.0 0.00 0.00 0.00 74 1008.8
20260902002819 86 89 2.0 6.0 0.00 0.00 0.00 74 1008.7
20260902002319 86 46 2.0 5.0 0.00 0.00 0.00 73 1008.7
20260902001820 86 219 1.0 4.0 0.00 0.00 0.00 73 1008.7
20260902001312 87 85 2.0 5.0 0.00 0.00 0.00 74 1008.7
20260902000813 87 80 2.0 7.0 0.00 0.00 0.00 73 1008.7
20260902000314 87 58 1.0 7.0 0.00 0.00 0.00 71 1008.7
20260901235814 88 53 0.0 3.0 0.00 0.00 0.00 68 1008.6
20260901235314 88 134 0.0 1.0 0.00 0.00 0.00 66 1008.4
20260901234814 88 134 0.0 2.0 0.00 0.00 0.00 66 1008.4
20260901234308 89 134 0.0 2.0 0.00 0.00 0.00 66 1008.5
20260901233806 89 124 0.0 2.0 0.00 0.00 0.00 65 1008.5
20260901233304 89 122 0.0 2.0 0.00 0.00 0.00 65 1008.5
20260901232802 89 122 0.0 2.0 0.00 0.00 0.00 64 1008.6
20260901232305 89 102 0.0 2.0 0.00 0.00 0.00 64 1008.6
20260901232032 89 102 0.0 2.0 0.00 0.00 0.00 63 1008.6
20260901231259 89 95 0.0 2.0 0.00 0.00 0.00 63 1008.7
20260901230805 89 75 1.0 4.0 0.00 0.00 0.00 62 1008.7
20260901230759 89 111 1.0 4.0 0.00 0.00 0.00 62 1008.7
20260901225800 89 51 0.0 4.0 0.00 0.00 0.00 61 1008.7
20260901225259 89 65 1.0 3.0 0.00 0.00 0.00 62 1008.7
20260901224800 89 89 2.0 4.0 0.00 0.00 0.00 62 1008.7
20260901224300 90 59 1.0 3.0 0.00 0.00 0.00 61 1008.8
20260901224253 89 82 2.0 4.0 0.00 0.00 0.00 61 1008.8
20260901223910 90 86 1.0 3.0 0.00 0.00 0.00 61 1008.7
20260901222748 90 21 1.0 3.0 0.00 0.00 0.00 61 1008.7
20260901222248 90 70 1.0 4.0 0.00 0.00 0.00 58 1008.7
20260901221742 90 293 1.0 4.0 0.00 0.00 0.00 58 1008.7
20260901221245 90 305 1.0 6.0 0.00 0.00 0.00 58 1008.8
20260901221240 90 304 1.0 4.0 0.00 0.00 0.00 58 1008.7
20260901220236 90 25 1.0 6.0 0.00 0.00 0.00 58 1008.9
20260901215737 90 63 1.0 2.0 0.00 0.00 0.00 59 1008.9
20260901215238 90 34 1.0 4.0 0.00 0.00 0.00 60 1009.0
20260901214741 90 70 2.0 8.0 0.00 0.00 0.00 62 1009.2
20260901214736 90 127 2.0 5.0 0.00 0.00 0.00 61 1009.1
20260901213735 90 72 3.0 8.0 0.00 0.00 0.00 62 1009.2
20260901213233 91 57 2.0 6.0 0.00 0.00 0.00 62 1009.3
20260901212735 91 27 1.0 4.0 0.00 0.00 0.00 62 1009.2
20260901212234 91 78 1.0 3.0 0.00 0.00 0.00 61 1009.1
20260901211735 91 354 2.0 5.0 0.00 0.00 0.00 62 1009.0
20260901211232 91 82 2.0 5.0 0.00 0.00 0.00 61 1008.9
20260901210734 91 264 2.0 5.0 0.00 0.00 0.00 61 1008.9
20260901210233 91 41 3.0 7.0 0.00 0.00 0.00 62 1008.9
20260901205734 91 56 3.0 7.0 0.00 0.00 0.00 61 1009.0
20260901205234 92 117 2.0 5.0 0.00 0.00 0.00 60 1009.0
20260901204735 92 335 2.0 7.0 0.00 0.00 0.00 60 1009.0
20260901204229 92 60 3.0 7.0 0.00 0.00 0.00 61 1009.1
20260901203731 92 82 3.0 8.0 0.00 0.00 0.00 60 1009.1
20260901203228 93 110 3.0 8.0 0.00 0.00 0.00 58 1009.3
20260901203001 94 20 3.0 7.0 0.00 0.00 0.00 57 1009.3
20260901202230 94 52 2.0 7.0 0.00 0.00 0.00 57 1009.4
20260901201732 95 301 2.0 7.0 0.00 0.00 0.00 55 1009.4
20260901201225 95 44 3.0 9.0 0.00 0.00 0.00 57 1009.5
20260901200725 94 333 3.0 9.0 0.00 0.00 0.00 57 1009.5
20260901200456 95 97 2.0 6.0 0.00 0.00 0.00 56 1009.6
20260901195724 95 95 1.0 5.0 0.00 0.00 0.00 55 1009.6
20260901195225 96 296 1.0 5.0 0.00 0.00 0.00 57 1009.7
20260901194726 95 7 2.0 5.0 0.00 0.00 0.00 57 1009.8
20260901194451 95 1 2.0 6.0 0.00 0.00 0.00 57 1009.9
20260901193954 95 306 2.0 6.0 0.00 0.00 0.00 58 1009.9
20260901193221 94 12 3.0 6.0 0.00 0.00 0.00 57 1009.9
20260901192951 94 286 3.0 6.0 0.00 0.00 0.00 58 1010.0
20260901192223 94 77 2.0 6.0 0.00 0.00 0.00 57 1010.1
20260901191722 94 48 2.0 5.0 0.00 0.00 0.00 58 1010.1
20260901191451 93 248 2.0 5.0 0.00 0.00 0.00 60 1010.0
20260901190952 93 85 3.0 8.0 0.00 0.00 0.00 60 1010.1
20260901190220 93 94 3.0 8.0 0.00 0.00 0.00 60 1010.2
20260901185720 94 99 2.0 7.0 0.00 0.00 0.00 61 1010.2
20260901185221 93 319 2.0 11.0 0.00 0.00 0.00 60 1010.3
20260901184716 92 345 2.0 11.0 0.00 0.00 0.00 62 1010.4
20260901184217 92 107 2.0 4.0 0.00 0.00 0.00 63 1010.4
20260901183717 92 314 2.0 5.0 0.00 0.00 0.00 63 1010.4
20260901183218 92 56 2.0 6.0 0.00 0.00 0.00 63 1010.4
20260901182718 92 40 2.0 7.0 0.00 0.00 0.00 63 1010.6
20260901182217 92 298 2.0 7.0 0.00 0.00 0.00 62 1010.7
20260901181944 92 256 2.0 6.0 0.00 0.00 0.00 62 1010.8
20260901181208 92 54 2.0 6.0 0.00 0.00 0.00 65 1010.7
20260901180705 91 342 1.0 4.0 0.00 0.00 0.00 65 1010.8
20260901180202 91 24 1.0 4.0 0.00 0.00 0.00 67 1010.8
20260901175703 90 328 1.0 4.0 0.00 0.00 0.00 67 1010.9
20260901175204 90 307 2.0 4.0 0.00 0.00 0.00 68 1011.1
20260901174703 90 355 2.0 6.0 0.00 0.00 0.00 68 1011.1
20260901174200 90 309 2.0 6.0 0.00 0.00 0.00 70 1011.2
20260901173701 90 349 1.0 5.0 0.00 0.00 0.00 70 1011.3
20260901173201 90 288 2.0 5.0 0.00 0.00 0.00 73 1011.5
20260901172702 89 309 2.0 5.0 0.00 0.00 0.00 73 1011.7
20260901172202 89 274 2.0 6.0 0.00 0.00 0.00 75 1011.7
20260901171933 88 323 2.0 6.0 0.00 0.00 0.00 75 1011.8
20260901171201 88 289 2.0 5.0 0.00 0.00 0.00 76 1011.9
20260901170654 88 1 1.0 4.0 0.00 0.00 0.00 79 1011.8
20260901170426 87 330 2.0 5.0 0.00 0.00 0.00 78 1011.9
20260901165654 87 288 2.0 5.0 0.00 0.00 0.00 78 1012.0
20260901165203 87 68 2.0 4.0 0.00 0.00 0.00 78 1012.0
20260901164700 87 299 1.0 5.0 0.00 0.00 0.00 78 1012.1
20260901164653 87 330 2.0 5.0 0.00 0.00 0.00 78 1012.0
20260901163647 87 291 1.0 6.0 0.00 0.00 0.00 78 1012.1
20260901163148 87 283 1.0 6.0 0.00 0.00 0.00 79 1012.1
20260901162647 86 314 1.0 5.0 0.00 0.00 0.00 79 1012.1
20260901162147 86 265 2.0 6.0 0.00 0.00 0.00 79 1012.0
20260901161647 86 275 2.0 7.0 0.00 0.00 0.00 79 1012.1
20260901161147 86 294 1.0 7.0 0.00 0.00 0.00 79 1012.1
20260901160642 86 299 1.0 4.0 0.00 0.00 0.00 79 1012.1
20260901160140 86 334 2.0 5.0 0.00 0.00 0.00 81 1012.1
20260901155640 86 326 2.0 5.0 0.00 0.00 0.00 80 1012.0
20260901155413 86 280 2.0 6.0 0.00 0.00 0.00 80 1012.0
20260901154641 86 300 2.0 7.0 0.00 0.00 0.00 81 1011.9
20260901154141 86 297 2.0 7.0 0.00 0.00 0.00 81 1011.8
20260901153638 86 290 1.0 4.0 0.00 0.00 0.00 81 1011.8
20260901153137 86 17 1.0 3.0 0.00 0.00 0.00 82 1011.9
20260901152637 86 244 1.0 4.0 0.00 0.00 0.00 81 1011.9
20260901152137 86 300 1.0 4.0 0.00 0.00 0.00 82 1011.9
20260901151635 86 285 2.0 5.0 0.00 0.00 0.00 81 1011.9
20260901151134 86 198 2.0 4.0 0.00 0.00 0.00 81 1011.9
20260901150630 86 280 2.0 5.0 0.00 0.00 0.00 82 1011.8
20260901150130 86 314 2.0 6.0 0.00 0.00 0.00 82 1011.8
20260901145901 86 245 2.0 6.0 0.00 0.00 0.00 82 1011.9
20260901145134 86 34 2.0 6.0 0.00 0.00 0.00 82 1011.9
20260901144903 85 254 1.0 6.0 0.00 0.00 0.00 83 1011.9
20260901144131 85 67 1.0 5.0 0.00 0.00 0.00 85 1012.0
20260901143632 84 63 1.0 5.0 0.00 0.00 0.00 85 1012.0
20260901143130 84 316 1.0 5.0 0.00 0.00 0.00 87 1012.1
20260901142627 83 326 1.0 5.0 0.00 0.00 0.00 88 1012.1
20260901142127 83 347 0.0 3.0 0.00 0.00 0.00 88 1012.0
20260901141626 82 31 0.0 5.0 0.00 0.00 0.00 89 1012.1
20260901141358 82 302 0.0 5.0 0.00 0.00 0.00 89 1012.2
20260901140858 82 344 0.0 4.0 0.00 0.00 0.00 90 1012.1
20260901140127 81 311 0.0 4.0 0.00 0.00 0.00 90 1012.1
20260901135623 81 304 0.0 1.0 0.00 0.00 0.00 90 1012.1
20260901135124 81 328 0.0 2.0 0.00 0.00 0.00 91 1012.2
20260901134853 81 326 0.0 2.0 0.00 0.00 0.00 91 1012.1
20260901134124 81 282 0.0 2.0 0.00 0.00 0.00 91 1012.2
20260901133621 81 282 0.0 2.0 0.00 0.00 0.00 91 1012.2
20260901133121 81 254 0.0 1.0 0.00 0.00 0.00 91 1012.1
20260901132619 80 254 0.0 2.0 0.00 0.00 0.00 91 1012.1
20260901132116 80 295 0.0 2.0 0.00 0.00 0.00 92 1012.0